Terminal Aerodrome Forecast
Issued by NWS Albuquerque, NM

Home | Current Version | Previous Version | Text Only | Print | Product List | Glossary On
Versions: 1 2 3 4 5 6 7 8 9 10 11 12 13
949
FTUS45 KABQ 262338
TAFABQ
TAF
KABQ 262338Z 2700/2724 25022G32KT P6SM VCSH SCT080 BKN130
     FM270200 28012KT P6SM VCSH SCT090 BKN130
     FM270600 30006KT P6SM SCT090 SCT130
     FM271500 25007KT P6SM SCT130
     FM272000 30015G22KT P6SM SCT080=

USA.gov is the U.S. government's official web portal to all federal, state and local government web resources and services.